QPF
0.00 0.00 0.00 0.00 0.00 0.00 0.00 0.00 0.00 0.00 0.00 0.00 0.00 0.00 0.00 0.00 0.00 0.00 0.00 0.00 0.00 0.00 0.00 0.00 0.00 0.00 0.00 0.00 0.00 0.00 0.00 0.00 0.00
0.00 0.00 0.00 0.00 0.00 0.00 0.00 0.00 0.00 0.00 0.00 0.00 0.00 0.00 0.00 0.00 0.00 0.00 0.00 0.01 0.00 0.00 0.00 0.00 0.00 0.00 0.00 0.00 0.00 0.00 0.00 0.00 0.00
0.00 0.00 0.00 0.00 0.00 0.00 0.00 0.00 0.00 0.00 0.00 0.00 0.00 0.00 0.00 0.00 0.00 0.00 0.00 0.00 0.00 0.00 0.00 0.00 0.00 0.01 0.02 0.00 0.01 0.00 0.00 0.00 0.00
0.00 0.00 0.00 0.00 0.00 0.00 0.00 0.00 0.00 0.00 0.00 0.00 0.00 0.00 0.00 0.00 0.00 0.00 0.00 0.00 0.00 0.00 0.00 0.00 0.00 0.00 0.04 0.05 0.00 0.00 0.00 0.00 0.00
0.00 0.00 0.01 0.00 0.00 0.00 0.00 0.00 0.00 0.00 0.00 0.00 0.01 0.00 0.00 0.00 0.00 0.00 0.00 0.00 0.00 0.00 0.00 0.00 0.00 0.00 0.00 0.03 0.00 0.00 0.05 0.01 0.00
0.00 0.00 0.02 0.05 0.03 0.00 0.00 0.00 0.01 0.00 0.00 0.00 0.00 0.01 0.00 0.00 0.00 0.00 0.00 0.00 0.00 0.00 0.00 0.00 0.00 0.00 0.00 0.00 0.00 0.01 0.05 0.07 0.01
0.01 0.01 0.00 0.02 0.02 0.02 0.02 0.01 0.01 0.00 0.00 0.00 0.00 0.00 0.00 0.00 0.00 0.00 0.00 0.00 0.00 0.00 0.00 0.00 0.00 0.00 0.00 0.01 0.02 0.01 0.04 0.05 0.01
0.02 0.00 0.01 0.01 0.02 0.00 0.00 0.01 0.03 0.01 0.00 0.00 0.00 0.00 0.00 0.00 0.00 0.00 0.00 0.00 0.00 0.00 0.00 0.01 0.00 0.00 0.00 0.04 0.06 0.11 0.11 0.04 0.00
0.00 0.00 0.01 0.01 0.04 0.02 0.00 0.00 0.04 0.05 0.03 0.02 0.04 0.02 0.00 0.00 0.01 0.02 0.03 0.01 0.00 0.00 0.04 0.13 0.07 0.04 0.02 0.02 0.02 0.09 0.11 0.07 0.03
0.01 0.00 0.00 0.00 0.01 0.09 0.08 0.01 0.03 0.10 0.09 0.11 0.20 0.17 0.21 0.15 0.12 0.11 0.09 0.09 0.08 0.05 0.07 0.10 0.04 0.05 0.05 0.03 0.02 0.02 0.04 0.02 0.02
0.00 0.00 0.00 0.00 0.01 0.02 0.05 0.03 0.02 0.04 0.07 0.09 0.11 0.13 0.13 0.14 0.13 0.15 0.17 0.14 0.10 0.12 0.15 0.14 0.08 0.05 0.03 0.03 0.02 0.01 0.00 0.00 0.00
0.00 0.00 0.00 0.00 0.00 0.00 0.00 0.00 0.01 0.03 0.05 0.05 0.06 0.09 0.08 0.08 0.11 0.12 0.12 0.09 0.05 0.13 0.17 0.14 0.10 0.08 0.07 0.04 0.02 0.02 0.01 0.00 0.00
0.00 0.00 0.00 0.00 0.00 0.00 0.00 0.00 0.00 0.00 0.01 0.01 0.02 0.03 0.03 0.05 0.09 0.11 0.11 0.12 0.09 0.06 0.09 0.08 0.05 0.08 0.07 0.04 0.02 0.02 0.03 0.01 0.00
0.00 0.00 0.00 0.00 0.00 0.00 0.00 0.00 0.00 0.00 0.00 0.00 0.00 0.00 0.01 0.03 0.04 0.08 0.10 0.09 0.08 0.07 0.10 0.08 0.07 0.09 0.06 0.02 0.02 0.01 0.03 0.02 0.01
0.00 0.00 0.00 0.00 0.00 0.00 0.00 0.00 0.01 0.01 0.00 0.00 0.02 0.03 0.01 0.01 0.01 0.04 0.06 0.06 0.03 0.03 0.05 0.13 0.13 0.11 0.04 0.01 0.00 0.01 0.01 0.01 0.00
0.00 0.00 0.00 0.00 0.00 0.00 0.00 0.00 0.00 0.01 0.01 0.01 0.04 0.06 0.02 0.01 0.00 0.02 0.06 0.03 0.02 0.03 0.03 0.04 0.03 0.02 0.01 0.00 0.00 0.00 0.00 0.00 0.00
0.00 0.00 0.00 0.00 0.00 0.00 0.00 0.00 0.00 0.00 0.00 0.00 0.01 0.02 0.02 0.03 0.03 0.05 0.06 0.05 0.04 0.05 0.06 0.04 0.03 0.03 0.04 0.02 0.00 0.00 0.00 0.00 0.00
0.00 0.00 0.00 0.00 0.00 0.00 0.00 0.00 0.00 0.00 0.00 0.00 0.00 0.00 0.01 0.03 0.04 0.05 0.05 0.05 0.05 0.07 0.06 0.06 0.04 0.03 0.02 0.01 0.00 0.00 0.00 0.00 0.00
0.00 0.00 0.00 0.00 0.00 0.00 0.00 0.00 0.00 0.00 0.00 0.00 0.00 0.00 0.00 0.00 0.01 0.00 0.00 0.02 0.03 0.03 0.04 0.04 0.02 0.01 0.01 0.01 0.00 0.00 0.00 0.00 0.00
0.00 0.00 0.00 0.00 0.00 0.00 0.00 0.00 0.00 0.00 0.00 0.00 0.00 0.00 0.00 0.00 0.00 0.00 0.00 0.00 0.00 0.00 0.00 0.00 0.00 0.00 0.00 0.00 0.00 0.00 0.00 0.00 0.00
MSLP
1011.63 1012.11 1012.70 1013.26 1013.70 1014.30 1014.99 1015.62 1016.25 1016.88 1017.46 1017.89 1018.35 1018.80 1018.90 1018.84 1019.05 1019.34 1019.67 1019.86 1020.02 1020.17 1020.29 1020.22 1019.97 1020.03 1019.92 1019.98 1020.21 1020.38 1020.53 1020.57 1020.62
1010.56 1010.96 1011.56 1012.23 1013.13 1013.88 1014.49 1015.19 1015.75 1016.22 1016.82 1017.44 1017.96 1018.40 1018.85 1018.90 1019.06 1019.37 1019.54 1019.68 1019.92 1019.92 1019.93 1020.05 1020.07 1020.08 1019.99 1019.88 1019.98 1020.12 1020.43 1020.69 1020.65
1010.22 1010.74 1011.34 1012.24 1012.75 1013.36 1013.99 1014.46 1015.06 1015.76 1016.30 1016.66 1017.13 1017.87 1018.34 1018.64 1018.85 1019.06 1019.19 1019.44 1019.63 1019.77 1019.86 1019.95 1019.86 1020.02 1020.05 1020.05 1020.03 1020.05 1020.18 1020.45 1020.44
1010.29 1010.62 1011.02 1011.67 1012.31 1013.00 1013.32 1014.06 1014.68 1015.22 1015.96 1016.45 1016.88 1017.34 1017.73 1018.23 1018.56 1018.85 1019.12 1019.16 1019.22 1019.42 1019.61 1019.72 1019.85 1019.97 1020.09 1020.32 1020.20 1019.94 1020.05 1020.23 1020.34
1010.09 1010.48 1011.11 1011.44 1011.92 1012.82 1013.33 1013.65 1014.27 1014.62 1015.34 1015.86 1016.15 1016.55 1017.14 1017.59 1017.98 1018.35 1018.63 1018.81 1018.96 1019.14 1019.34 1019.44 1019.44 1019.75 1019.94 1019.90 1020.09 1020.01 1019.86 1019.91 1020.04
1010.54 1010.75 1011.37 1011.84 1012.52 1012.94 1013.38 1013.60 1013.82 1014.22 1014.59 1015.13 1015.62 1016.06 1016.50 1016.98 1017.46 1017.84 1018.08 1018.38 1018.62 1018.92 1019.16 1019.30 1019.32 1019.40 1019.73 1019.82 1019.78 1020.00 1020.06 1019.86 1019.89
1011.21 1011.18 1011.39 1011.97 1012.58 1013.08 1013.51 1013.64 1013.80 1014.07 1014.23 1014.38 1015.02 1015.46 1015.96 1016.32 1016.67 1017.04 1017.47 1017.75 1018.03 1018.40 1018.71 1018.99 1019.16 1019.40 1019.46 1019.64 1019.70 1019.82 1019.86 1019.72 1019.67
1012.64 1012.45 1012.07 1011.91 1012.52 1012.99 1013.38 1013.66 1013.98 1014.24 1014.31 1014.46 1014.74 1015.12 1015.46 1015.65 1015.90 1016.35 1016.84 1017.34 1017.68 1017.84 1018.28 1018.59 1018.99 1019.28 1019.50 1019.58 1019.65 1019.66 1019.86 1019.80 1019.65
1013.78 1013.46 1013.44 1013.16 1012.92 1012.97 1013.52 1013.82 1014.03 1014.14 1014.32 1014.41 1014.89 1015.29 1015.32 1015.39 1015.74 1015.93 1016.27 1016.66 1017.17 1017.60 1017.89 1018.21 1018.57 1018.88 1019.20 1019.50 1019.71 1019.88 1019.72 1019.94 1019.86
1015.60 1015.33 1014.90 1014.46 1014.36 1013.96 1014.00 1013.70 1014.10 1014.32 1014.47 1014.46 1014.76 1015.24 1015.48 1015.49 1015.52 1015.90 1015.98 1016.11 1016.45 1017.09 1017.51 1017.85 1018.23 1018.51 1019.16 1019.59 1019.70 1019.85 1020.07 1019.93 1019.71
1016.64 1016.45 1016.03 1015.68 1015.49 1014.92 1014.61 1014.44 1013.96 1014.10 1014.28 1014.35 1014.80 1015.36 1015.37 1015.58 1015.80 1015.64 1015.92 1016.08 1016.43 1016.83 1017.13 1017.84 1018.23 1018.53 1018.81 1019.39 1019.54 1019.88 1019.94 1020.01 1019.79
1017.12 1017.00 1016.76 1016.51 1016.11 1015.97 1015.70 1015.04 1014.35 1014.02 1014.54 1014.26 1014.42 1014.95 1015.22 1015.31 1015.31 1015.30 1015.49 1016.13 1016.19 1016.63 1016.99 1017.53 1018.05 1018.34 1018.80 1019.01 1019.46 1019.20 1019.17 1019.92 1019.82
1017.25 1017.37 1017.24 1016.91 1016.63 1016.39 1015.98 1015.31 1014.36 1013.94 1014.67 1014.36 1014.40 1014.45 1014.89 1015.18 1015.13 1015.08 1015.37 1015.95 1016.17 1016.46 1016.92 1017.40 1017.85 1018.55 1018.79 1019.37 1019.29 1019.28 1019.25 1019.82 1019.82
1017.68 1017.60 1017.22 1016.93 1016.65 1016.41 1015.69 1015.20 1014.39 1014.78 1015.06 1015.05 1014.95 1014.45 1014.60 1014.86 1015.14 1015.00 1015.25 1015.90 1016.18 1016.42 1016.89 1017.60 1018.19 1018.68 1019.27 1019.60 1019.30 1018.95 1019.16 1019.62 1019.78
1017.90 1017.98 1017.56 1017.19 1016.88 1016.69 1016.37 1016.05 1015.75 1015.67 1015.78 1015.80 1015.55 1015.14 1015.33 1015.66 1015.56 1015.28 1015.55 1016.12 1016.67 1017.09 1017.53 1018.08 1019.19 1019.80 1019.81 1019.81 1019.98 1019.72 1019.31 1019.53 1019.92
1018.41 1018.48 1018.27 1018.10 1017.77 1017.55 1017.37 1016.85 1016.63 1016.51 1016.46 1016.24 1016.10 1016.03 1016.24 1016.40 1016.47 1016.32 1016.42 1016.66 1016.29 1017.49 1018.45 1018.84 1019.63 1020.13 1020.05 1020.28 1020.34 1020.20 1020.15 1019.96 1020.24
1018.85 1018.87 1018.90 1018.71 1018.58 1018.48 1018.57 1018.17 1017.83 1017.73 1017.47 1017.17 1017.13 1017.22 1017.58 1017.70 1017.66 1017.62 1017.89 1017.83 1017.92 1018.44 1019.17 1019.68 1020.16 1020.36 1020.78 1021.06 1021.12 1020.92 1021.07 1021.21 1021.05
1019.40 1019.43 1019.27 1019.19 1019.30 1019.42 1019.57 1019.18 1018.85 1018.61 1018.17 1018.08 1018.15 1018.24 1018.53 1018.57 1018.85 1018.88 1019.18 1019.75 1019.82 1019.95 1020.77 1020.88 1020.63 1020.94 1021.10 1021.42 1021.54 1021.78 1021.96 1021.87 1021.77
1019.77 1019.74 1019.68 1019.83 1019.93 1019.68 1019.60 1019.32 1019.43 1019.45 1019.15 1018.66 1018.55 1018.74 1018.86 1019.16 1019.32 1019.70 1020.01 1020.30 1021.14 1021.39 1021.29 1021.59 1021.50 1021.35 1021.74 1022.12 1022.43 1022.34 1022.12 1022.32 1022.69
1020.08 1020.08 1020.12 1020.25 1020.57 1020.36 1020.40 1020.47 1020.26 1020.16 1019.90 1019.54 1019.44 1019.69 1019.52 1019.64 1019.84 1020.17 1020.31 1020.79 1021.06 1021.46 1022.14 1022.21 1022.27 1022.20 1022.21 1022.18 1022.27 1022.56 1022.62 1022.50 1022.51
Thickness
5770 5768 5771 5772 5774 5774 5772 5771 5771 5770 5767 5766 5766 5764 5765 5767 5768 5766 5764 5763 5762 5761 5762 5763 5766 5767 5769 5769 5768 5768 5766 5767 5766
5772 5775 5776 5776 5775 5775 5773 5772 5771 5772 5770 5768 5767 5765 5764 5764 5765 5765 5764 5764 5763 5762 5763 5762 5763 5764 5766 5768 5768 5767 5765 5765 5765
5774 5775 5773 5769 5771 5775 5775 5775 5775 5773 5772 5771 5771 5768 5767 5765 5765 5765 5766 5765 5764 5763 5763 5761 5762 5763 5763 5765 5766 5766 5766 5765 5766
5765 5763 5765 5767 5770 5772 5776 5775 5775 5773 5770 5769 5769 5768 5768 5766 5764 5764 5764 5765 5767 5765 5764 5763 5762 5761 5761 5760 5763 5766 5766 5766 5766
5760 5757 5755 5762 5768 5767 5768 5772 5774 5774 5772 5770 5771 5772 5769 5768 5768 5766 5765 5765 5766 5767 5765 5764 5765 5763 5762 5763 5763 5765 5766 5766 5767
5759 5754 5752 5754 5755 5760 5762 5766 5769 5772 5774 5773 5772 5771 5771 5769 5767 5766 5765 5765 5765 5764 5764 5763 5764 5764 5763 5762 5763 5763 5763 5766 5767
5758 5761 5761 5757 5755 5755 5757 5761 5765 5766 5770 5775 5772 5771 5770 5769 5767 5766 5766 5765 5765 5763 5762 5762 5761 5761 5761 5761 5760 5761 5762 5764 5765
5743 5748 5754 5756 5753 5754 5755 5755 5756 5758 5761 5766 5767 5767 5768 5769 5768 5766 5764 5761 5761 5761 5760 5758 5757 5756 5756 5756 5756 5756 5756 5758 5760
5731 5733 5739 5745 5748 5750 5749 5750 5751 5753 5754 5757 5759 5759 5761 5764 5763 5763 5761 5760 5758 5757 5756 5755 5754 5753 5751 5750 5749 5748 5750 5749 5749
5714 5718 5726 5733 5734 5740 5743 5746 5748 5748 5749 5754 5754 5753 5754 5757 5759 5757 5758 5759 5757 5753 5751 5751 5750 5748 5744 5741 5740 5740 5740 5743 5746
5701 5707 5713 5717 5720 5725 5731 5739 5747 5748 5748 5748 5748 5747 5747 5749 5749 5751 5750 5751 5748 5746 5746 5743 5742 5741 5738 5735 5736 5731 5732 5734 5738
5695 5700 5705 5708 5714 5715 5718 5727 5739 5744 5740 5744 5743 5742 5741 5741 5740 5737 5743 5742 5742 5741 5739 5737 5735 5733 5733 5732 5729 5731 5731 5727 5728
5689 5692 5696 5699 5705 5708 5713 5720 5726 5737 5732 5738 5737 5737 5735 5733 5735 5734 5736 5736 5734 5734 5733 5730 5727 5724 5724 5722 5723 5723 5723 5720 5718
5680 5682 5689 5696 5701 5704 5712 5718 5727 5723 5723 5726 5729 5732 5729 5727 5718 5726 5732 5729 5728 5727 5723 5718 5715 5712 5709 5709 5710 5715 5715 5709 5711
5673 5674 5681 5688 5696 5700 5703 5706 5709 5711 5711 5714 5717 5720 5715 5713 5717 5723 5722 5719 5716 5713 5709 5704 5696 5691 5693 5695 5692 5693 5701 5700 5699
5660 5663 5667 5672 5678 5685 5688 5694 5697 5699 5699 5702 5704 5706 5705 5704 5705 5707 5707 5707 5712 5699 5692 5689 5682 5681 5682 5678 5678 5682 5685 5691 5691
5649 5652 5654 5658 5661 5666 5668 5673 5678 5679 5683 5687 5687 5687 5684 5685 5687 5687 5685 5687 5688 5685 5684 5681 5679 5677 5673 5671 5672 5676 5676 5677 5679
5634 5637 5642 5646 5648 5649 5649 5654 5659 5663 5667 5669 5671 5669 5667 5668 5668 5667 5668 5665 5667 5664 5656 5658 5667 5665 5666 5665 5666 5663 5661 5665 5667
5625 5626 5630 5631 5632 5638 5640 5643 5642 5643 5648 5653 5655 5657 5656 5653 5653 5651 5651 5653 5646 5643 5643 5643 5648 5651 5649 5648 5646 5648 5651 5649 5646
5614 5616 5618 5617 5615 5619 5620 5621 5624 5626 5630 5635 5638 5638 5640 5641 5639 5637 5638 5637 5639 5637 5630 5631 5633 5634 5637 5635 5636 5634 5634 5635 5634